2024/01/26 00:00:00,19.5,-1.7
2024/01/26 00:10:00,19.5,-1.3
2024/01/26 00:20:00,19.6,-1.7
2024/01/26 00:30:00,19.6,-1.8
2024/01/26 00:40:00,19.6,-2.0
2024/01/26 00:50:00,19.3,-1.6
2024/01/26 01:00:00,19.2,-1.9
2024/01/26 01:10:00,20.0,-2.1
2024/01/26 01:20:00,19.7,-2.3
2024/01/26 01:30:00,19.9,-1.9
2024/01/26 01:40:00,20.3,-1.9
2024/01/26 01:50:00,20.5,-1.9
2024/01/26 02:00:00,20.4,-2.2
2024/01/26 02:10:00,20.6,-1.9
2024/01/26 02:20:00,20.7,-2.0
2024/01/26 02:30:00,21.0,-1.9
2024/01/26 02:40:00,20.9,-1.9
2024/01/26 02:50:00,20.8,-2.1
2024/01/26 03:00:00,20.7,-2.2
2024/01/26 03:10:00,20.6,-2.0
2024/01/26 03:20:00,20.6,-2.0
2024/01/26 03:30:00,20.5,-2.0
2024/01/26 03:40:00,20.5,-2.1
2024/01/26 03:50:00,20.4,-2.3
2024/01/26 04:00:00,20.4,-2.0
2024/01/26 04:10:00,20.4,-2.1
2024/01/26 04:20:00,20.3,-2.3
2024/01/26 04:30:00,20.2,-2.4
2024/01/26 04:40:00,20.1,-2.0
2024/01/26 04:50:00,20.2,-2.1
2024/01/26 05:00:00,20.0,-2.2
2024/01/26 05:10:00,20.0,-2.0
2024/01/26 05:20:00,19.9,-2.1
2024/01/26 05:30:00,19.9,-2.2
2024/01/26 05:40:00,19.8,-2.2
2024/01/26 05:50:00,19.7,-2.1
2024/01/26 06:00:00,19.7,-2.2
2024/01/26 06:10:00,19.6,-2.2
2024/01/26 06:20:00,19.5,-2.3
2024/01/26 06:30:00,19.5,-2.0
2024/01/26 06:40:00,19.4,-2.3
2024/01/26 06:50:00,19.3,-2.2
2024/01/26 07:00:00,19.3,-2.2
2024/01/26 07:10:00,19.1,-2.2
2024/01/26 07:20:00,19.1,-2.2
2024/01/26 07:30:00,19.0,-2.4
2024/01/26 07:40:00,18.9,-2.1
2024/01/26 07:50:00,18.9,-2.1
2024/01/26 08:00:00,18.9,-1.7
2024/01/26 08:10:00,18.9,-1.6
2024/01/26 08:20:00,19.0,-0.8
2024/01/26 08:30:00,19.4, 2.1
2024/01/26 08:40:00,19.4, 2.3
2024/01/26 08:50:00,19.5, 3.8
2024/01/26 09:00:00,19.5, 1.4
2024/01/26 09:10:00,19.2, 3.3
2024/01/26 09:20:00,19.3, 1.9
2024/01/26 09:30:00,19.3, 2.4
2024/01/26 09:40:00,18.8, 1.1
2024/01/26 09:50:00,19.0, 2.6
2024/01/26 10:00:00,19.7, 4.5
2024/01/26 10:10:00,19.5, 5.5
2024/01/26 10:20:00,19.2, 2.4
2024/01/26 10:30:00,18.9, 3.1
2024/01/26 10:40:00,19.1, 4.1
2024/01/26 10:50:00,19.1, 3.1
2024/01/26 11:00:00,18.5, 2.1
2024/01/26 11:10:00,18.2, 1.7
2024/01/26 11:20:00,18.3, 3.7
2024/01/26 11:30:00,18.2, 2.7
2024/01/26 11:40:00,17.9, 2.7
2024/01/26 11:50:00,17.8, 2.7
2024/01/26 12:00:00,17.8, 2.0
2024/01/26 12:10:00,17.7, 1.5
2024/01/26 12:20:00,17.7, 2.2
2024/01/26 12:30:00,17.6, 1.8
2024/01/26 12:40:00,17.5, 1.4
2024/01/26 12:50:00,17.4, 1.3
2024/01/26 13:00:00,17.2, 0.9
2024/01/26 13:10:00,17.4, 1.4
2024/01/26 13:20:00,17.4, 1.7
2024/01/26 13:30:00,17.6, 3.4
2024/01/26 13:40:00,17.7, 4.0
2024/01/26 13:50:00,17.1, 2.2
2024/01/26 14:00:00,16.8, 1.3
2024/01/26 14:10:00,16.8, 2.0
2024/01/26 14:20:00,17.0, 2.3
2024/01/26 14:30:00,17.0, 5.9
2024/01/26 14:40:00,16.9, 6.9
2024/01/26 14:50:00,16.1, 2.9
2024/01/26 15:00:00,16.0, 2.2
2024/01/26 15:10:00,16.2, 1.7
2024/01/26 15:20:00,16.2, 0.8
2024/01/26 15:30:00,16.2, 0.6
2024/01/26 15:40:00,16.1, 0.4
2024/01/26 15:50:00,16.0, 0.3
2024/01/26 16:00:00,15.9, 0.7
2024/01/26 16:10:00,16.2, 7.7
2024/01/26 16:20:00,16.1, 7.0
2024/01/26 16:30:00,15.9, 4.0
2024/01/26 16:40:00,15.7, 2.5
2024/01/26 16:50:00,15.6, 0.7
2024/01/26 17:00:00,15.5, 0.1
2024/01/26 17:10:00,15.3,-0.0
2024/01/26 17:20:00,15.1,-0.4
2024/01/26 17:30:00,15.0,-1.1
2024/01/26 17:40:00,14.9,-0.9
2024/01/26 17:50:00,14.9,-1.0
2024/01/26 18:00:00,14.8,-1.1
2024/01/26 18:10:00,14.8,-0.9
2024/01/26 18:20:00,14.8,-0.9
2024/01/26 18:30:00,14.8,-1.1
2024/01/26 18:40:00,14.8,-1.1
2024/01/26 18:50:00,14.8,-1.0
2024/01/26 19:00:00,14.7,-0.7
2024/01/26 19:10:00,14.7,-1.4
2024/01/26 19:20:00,14.6,-1.3
2024/01/26 19:30:00,14.5,-1.5
2024/01/26 19:40:00,14.4,-1.5
2024/01/26 19:50:00,14.4,-1.3
2024/01/26 20:00:00,14.3,-1.8
2024/01/26 20:10:00,14.3,-1.7
2024/01/26 20:20:00,14.4,-1.5
2024/01/26 20:30:00,14.2,-1.2
2024/01/26 20:40:00,14.2,-1.3
2024/01/26 20:50:00,14.1,-1.1
2024/01/26 21:00:00,14.2,-1.4
2024/01/26 21:10:00,14.2,-1.7
2024/01/26 21:20:00,14.2,-1.6
2024/01/26 21:30:00,14.1,-2.0
2024/01/26 21:40:00,14.1,-1.6
2024/01/26 21:50:00,14.0,-1.5
2024/01/26 22:00:00,13.9,-1.5
2024/01/26 22:10:00,13.9,-1.5
2024/01/26 22:20:00,13.9,-1.5
2024/01/26 22:30:00,13.9,-1.6
2024/01/26 22:40:00,13.8,-1.7
2024/01/26 22:50:00,13.8,-1.8
2024/01/26 23:00:00,13.8,-1.7
2024/01/26 23:10:00,13.8,-1.9
2024/01/26 23:20:00,13.7,-1.8
2024/01/26 23:30:00,13.7,-1.6
2024/01/26 23:40:00,13.6,-1.6
2024/01/26 23:50:00,13.6,-0.9
